COSMOS 2491 DEB, 57563

Orbit data source: Space-Track

COSMOS 2491 DEB, 57563 is space debris in LEO originally from a launch on Wed, 25 Dec 2013 UTC launched from the Plesetsk Missile And Space Complex (PKMTR). Debris objects in space refer to the collection of defunct objects orbiting the Earth. Examples of debris include non-operational satellites, rocket bodies, and fragments generated from explosions, collisions, or faulty payload assembly.

Loading next visibility...
Identifier
57563, 2013-076BA
Orbit
LEO
Country
Flag of CISCIS
Related business
Manufacturer
TsNIIKhM
Mission
Spacecraft
Bus & Motor
Unknown
Mass
Unknown
Launch date (UTC)
2013-12-25 (12 years ago)
Launch vehicle
Unknown
Launch site
Plesetsk Missile And Space Complex (PKMTR)
Object type
Payload
Rocket body
Debris
Shape & HBR
Unknown shape, 0.1 m
Radar Cross Section
Small (<0.1 m²)

Expand to show TLE details & history
Last TLE update: 2 days ago

TLE from 2 days ago
0 COSMOS 2491 DEB
1 57563U 13076BA  26103.45615627  .00001258  00000-0  65714-2 0  9992
2 57563  82.4531 179.2972 0174968 146.7503 214.4728 12.62261167134458
Epoch: 2026-04-13T10:56Z
TLE epoch observation values (Epoch: 2026-04-13T10:56:51.901Z)
Latitude
-0.00001°
Longitude
173.43444°
Altitude
1,529.512 km
Speed
7.049 km/s
True Right ascension
11h 57m 11s
True Declination
0° 00' 00"
Sunlit
Object was in full shadow at epoch
Visualization orbit readout
Latitude
Unknown
Longitude
Unknown
Altitude
Unknown
Speed
Unknown
Apparent Right ascension
Unknown
Apparent Declination
Unknown
Sunlit
N/A
Visualization observer readout
Local Sidereal Time
19:14:20
Azimuth
Unknown
Elevation
Unknown
Doppler factor
Unknown
Orbital elements
Apogee altitude
1,547.234 km
Perigee altitude
1,274.666 km
Semi-major axis
7,789.087 km
Eccentricity
0.0175
Inclination
82.4531°
RAAN
179.2972°
Arg. of periapsis
146.7503°
True anomaly
213.35813°
Mean anomaly
214.4728°
Eccentric anomaly
213.91347°
Mean motion
3.15728 °/min
Orbital period
114.02 mins
BSTAR
0.0065714
Loading maneuver chart data...
Computing Atmospheric mass density...
Loading historical data...
Loading historical data...
Loading historical data...
Loading historical data...
Loading historical data...
Loading historical data...
Loading historical data...

Documentation

Showing up to 5 results
|